EN

Hourly Weather Alto Piquiri

Today, 23 January, Saturday

Time Temperature Precipitation Wind Pressure Humidity
00:00 +23°C° 0 mm 2 mps 727 mmHg 88%
01:00 +23°C° 0 mm 2 mps 727 mmHg 88%
02:00 +23°C° 0 mm 2 mps 726 mmHg 88%
03:00 +23°C° 0 mm 2 mps 727 mmHg 87%
04:00 +22°C° 0 mm 3 mps 727 mmHg 86%
05:00 +22°C° 0 mm 3 mps 727 mmHg 85%
06:00 +23°C° 0 mm 4 mps 727 mmHg 84%
07:00 +25°C° 0 mm 4 mps 728 mmHg 82%
08:00 +26°C° 0 mm 5 mps 728 mmHg 81%
09:00 +27°C° 0.2 mm 5 mps 728 mmHg 79%
10:00 +28°C° 0.2 mm 5 mps 728 mmHg 77%
11:00 +29°C° 0.2 mm 5 mps 728 mmHg 74%
12:00 +29°C° 1.8 mm 5 mps 727 mmHg 75%
13:00 +29°C° 1.8 mm 5 mps 727 mmHg 76%
14:00 +29°C° 1.8 mm 5 mps 726 mmHg 77%
15:00 +28°C° 2.1 mm 4 mps 726 mmHg 80%
16:00 +27°C° 2.1 mm 3 mps 726 mmHg 84%
17:00 +26°C° 2.1 mm 2 mps 725 mmHg 87%
18:00 +26°C° 1.3 mm 2 mps 726 mmHg 89%
19:00 +25°C° 1.3 mm 2 mps 726 mmHg 91%
20:00 +24°C° 1.3 mm 2 mps 726 mmHg 93%
21:00 +24°C° 0.4 mm 3 mps 726 mmHg 93%
22:00 +22°C° 0.4 mm 3 mps 727 mmHg 93%
23:00 +22°C° 0.4 mm 4 mps 727 mmHg 93%

Tomorrow, 24 January, Sunday

Time Temperature Precipitation Wind Pressure Humidity
00:00 +22°C° 0 mm 4 mps 726 mmHg 93%
01:00 +22°C° 0 mm 3 mps 726 mmHg 93%
02:00 +21°C° 0 mm 3 mps 725 mmHg 93%
03:00 +21°C° 0 mm 3 mps 725 mmHg 93%
04:00 +21°C° 0 mm 2 mps 725 mmHg 93%
05:00 +22°C° 0 mm 1 mps 725 mmHg 94%
06:00 +23°C° 0 mm 2 mps 726 mmHg 91%
07:00 +24°C° 0 mm 3 mps 726 mmHg 88%
08:00 +26°C° 0 mm 3 mps 727 mmHg 85%
09:00 +26°C° 0.9 mm 4 mps 727 mmHg 83%
10:00 +27°C° 0.9 mm 4 mps 727 mmHg 80%
11:00 +28°C° 0.9 mm 5 mps 727 mmHg 78%
12:00 +28°C° 1.3 mm 5 mps 726 mmHg 78%
13:00 +28°C° 1.3 mm 5 mps 725 mmHg 79%
14:00 +28°C° 1.3 mm 5 mps 724 mmHg 79%
15:00 +28°C° 1.1 mm 4 mps 724 mmHg 82%
16:00 +27°C° 1.1 mm 3 mps 724 mmHg 86%
17:00 +26°C° 1.1 mm 3 mps 724 mmHg 89%
18:00 +25°C° 0.1 mm 3 mps 724 mmHg 90%
19:00 +25°C° 0.1 mm 3 mps 724 mmHg 91%
20:00 +24°C° 0.1 mm 3 mps 724 mmHg 92%
21:00 +24°C° 0 mm 3 mps 724 mmHg 92%
22:00 +22°C° 0 mm 3 mps 725 mmHg 93%
23:00 +22°C° 0 mm 3 mps 725 mmHg 93%

Day after tomorrow, 25 January, Monday

Time Temperature Precipitation Wind Pressure Humidity
00:00 +22°C° 0 mm 3 mps 724 mmHg 92%
01:00 +22°C° 0 mm 3 mps 724 mmHg 92%
02:00 +21°C° 0 mm 3 mps 724 mmHg 92%
03:00 +21°C° 0 mm 3 mps 724 mmHg 91%
04:00 +21°C° 0 mm 2 mps 724 mmHg 91%
05:00 +21°C° 0 mm 2 mps 724 mmHg 90%
06:00 +22°C° 0 mm 3 mps 724 mmHg 88%
07:00 +22°C° 0 mm 3 mps 725 mmHg 87%
08:00 +23°C° 0 mm 4 mps 725 mmHg 85%
09:00 +25°C° 0.1 mm 4 mps 725 mmHg 83%
10:00 +27°C° 0.1 mm 4 mps 725 mmHg 81%
11:00 +28°C° 0.1 mm 5 mps 725 mmHg 79%
12:00 +28°C° 1.4 mm 5 mps 724 mmHg 78%
13:00 +29°C° 1.4 mm 4 mps 723 mmHg 78%
14:00 +29°C° 1.4 mm 4 mps 722 mmHg 78%
15:00 +28°C° 2.2 mm 3 mps 722 mmHg 81%
16:00 +28°C° 2.2 mm 3 mps 722 mmHg 84%
17:00 +27°C° 2.2 mm 2 mps 722 mmHg 87%
18:00 +26°C° 0.7 mm 2 mps 723 mmHg 89%
19:00 +25°C° 0.7 mm 2 mps 723 mmHg 90%
20:00 +25°C° 0.7 mm 1 mps 723 mmHg 91%
21:00 +25°C° 0 mm 2 mps 724 mmHg 91%
22:00 +24°C° 0 mm 2 mps 724 mmHg 92%
23:00 +24°C° 0 mm 2 mps 724 mmHg 92%

26 January, Tuesday

Time Temperature Precipitation Wind Pressure Humidity
00:00 +24°C° 0 mm 2 mps 723 mmHg 93%
01:00 +23°C° 0 mm 2 mps 723 mmHg 93%
02:00 +23°C° 0 mm 2 mps 723 mmHg 94%
03:00 +22°C° 0 mm 3 mps 723 mmHg 94%
04:00 +22°C° 0 mm 3 mps 723 mmHg 93%
05:00 +22°C° 0 mm 3 mps 723 mmHg 93%
06:00 +24°C° 0 mm 3 mps 724 mmHg 92%
07:00 +24°C° 0 mm 3 mps 724 mmHg 90%
08:00 +25°C° 0 mm 3 mps 725 mmHg 89%
09:00 +26°C° 0.3 mm 3 mps 725 mmHg 87%
10:00 +27°C° 0.3 mm 2 mps 725 mmHg 86%
11:00 +28°C° 0.3 mm 2 mps 725 mmHg 84%
12:00 +28°C° 1.9 mm 2 mps 724 mmHg 82%
13:00 +29°C° 1.9 mm 2 mps 724 mmHg 81%
14:00 +29°C° 1.9 mm 3 mps 723 mmHg 80%
15:00 +29°C° 1.8 mm 2 mps 723 mmHg 82%
16:00 +29°C° 1.8 mm 2 mps 723 mmHg 83%
17:00 +28°C° 1.8 mm 1 mps 723 mmHg 85%
18:00 +27°C° 1.1 mm 2 mps 723 mmHg 87%
19:00 +26°C° 1.1 mm 2 mps 723 mmHg 88%
20:00 +26°C° 1.1 mm 3 mps 723 mmHg 90%
21:00 +25°C° 0 mm 3 mps 723 mmHg 90%
22:00 +25°C° 0 mm 3 mps 723 mmHg 91%
23:00 +24°C° 0 mm 3 mps 723 mmHg 92%

27 January, Wednesday

Time Temperature Precipitation Wind Pressure Humidity
00:00 +24°C° 0 mm 3 mps 723 mmHg 92%
01:00 +24°C° 0 mm 2 mps 723 mmHg 92%
02:00 +24°C° 0 mm 2 mps 723 mmHg 93%
03:00 +24°C° 0 mm 2 mps 723 mmHg 92%
04:00 +24°C° 0 mm 3 mps 723 mmHg 92%
05:00 +24°C° 0 mm 3 mps 723 mmHg 91%
06:00 +25°C° 0 mm 4 mps 724 mmHg 88%
07:00 +26°C° 0 mm 4 mps 724 mmHg 85%
08:00 +27°C° 0 mm 5 mps 725 mmHg 82%
09:00 +27°C° 2.1 mm 4 mps 725 mmHg 83%
10:00 +28°C° 2.1 mm 4 mps 725 mmHg 85%
11:00 +28°C° 2.1 mm 4 mps 724 mmHg 86%
12:00 +28°C° 2.2 mm 4 mps 724 mmHg 85%
13:00 +29°C° 2.2 mm 4 mps 724 mmHg 84%
14:00 +29°C° 2.2 mm 4 mps 723 mmHg 82%
15:00 +29°C° 0.7 mm 3 mps 723 mmHg 84%
16:00 +28°C° 0.7 mm 2 mps 723 mmHg 86%
17:00 +28°C° 0.7 mm 1 mps 723 mmHg 87%
18:00 +27°C° 0 mm 2 mps 723 mmHg 88%
19:00 +26°C° 0 mm 2 mps 722 mmHg 89%
20:00 +26°C° 0 mm 2 mps 722 mmHg 90%
21:00 +25°C° 0 mm 2 mps 722 mmHg 91%
22:00 +25°C° 0 mm 2 mps 723 mmHg 91%
23:00 +24°C° 0 mm 2 mps 723 mmHg 92%

28 January, Thursday

Time Temperature Precipitation Wind Pressure Humidity
00:00 +24°C° 0.2 mm 2 mps 722 mmHg 92%
01:00 +24°C° 0.2 mm 2 mps 722 mmHg 92%
02:00 +24°C° 0.2 mm 2 mps 722 mmHg 93%
03:00 +23°C° 1.1 mm 2 mps 722 mmHg 94%
04:00 +23°C° 1.1 mm 2 mps 722 mmHg 94%
05:00 +23°C° 1.1 mm 2 mps 722 mmHg 95%
06:00 +24°C° 2.2 mm 2 mps 723 mmHg 93%
07:00 +25°C° 2.2 mm 2 mps 723 mmHg 91%
08:00 +26°C° 2.2 mm 2 mps 724 mmHg 89%
09:00 +27°C° 1.1 mm 3 mps 724 mmHg 86%
10:00 +28°C° 1.1 mm 3 mps 724 mmHg 84%
11:00 +29°C° 1.1 mm 4 mps 723 mmHg 81%
12:00 +29°C° 0.7 mm 4 mps 723 mmHg 79%
13:00 +30°C° 0.7 mm 3 mps 722 mmHg 77%
14:00 +30°C° 0.7 mm 3 mps 722 mmHg 76%
Show more